Hourly Weather Pernik

Today, 27 October, Tuesday

Time Temperature Precipitation Wind Pressure Humidity
00:00 +9°C° 0 mm 1 mps 689 mmHg 76%
01:00 +9°C° 0 mm 1 mps 689 mmHg 76%
02:00 +9°C° 0 mm 1 mps 689 mmHg 77%
03:00 +8°C° 0 mm 1 mps 689 mmHg 77%
04:00 +8°C° 0 mm 1 mps 688 mmHg 77%
05:00 +8°C° 0 mm 1 mps 688 mmHg 77%
06:00 +8°C° 0 mm 1 mps 689 mmHg 76%
07:00 +8°C° 0 mm 0 mps 689 mmHg 74%
08:00 +9°C° 0 mm 0 mps 689 mmHg 73%
09:00 +12°C° 0 mm 1 mps 690 mmHg 66%
10:00 +13°C° 0 mm 1 mps 690 mmHg 60%
11:00 +15°C° 0 mm 1 mps 690 mmHg 54%
12:00 +16°C° 0 mm 1 mps 690 mmHg 51%
13:00 +18°C° 0 mm 1 mps 690 mmHg 49%
14:00 +19°C° 0 mm 1 mps 690 mmHg 46%
15:00 +18°C° 0 mm 1 mps 689 mmHg 51%
16:00 +16°C° 0 mm 1 mps 689 mmHg 55%
17:00 +14°C° 0 mm 1 mps 688 mmHg 60%
18:00 +13°C° 0 mm 1 mps 689 mmHg 64%
19:00 +12°C° 0 mm 1 mps 689 mmHg 68%
20:00 +11°C° 0 mm 1 mps 689 mmHg 72%
21:00 +11°C° 0 mm 1 mps 689 mmHg 75%
22:00 +10°C° 0 mm 1 mps 689 mmHg 78%
23:00 +9°C° 0 mm 0 mps 689 mmHg 80%

Tomorrow, 28 October, Wednesday

Time Temperature Precipitation Wind Pressure Humidity
00:00 +9°C° 0 mm 0 mps 689 mmHg 82%
01:00 +8°C° 0 mm 0 mps 689 mmHg 83%
02:00 +8°C° 0 mm 0 mps 689 mmHg 84%
03:00 +8°C° 0 mm 0 mps 689 mmHg 85%
04:00 +8°C° 0 mm 0 mps 689 mmHg 85%
05:00 +7°C° 0 mm 0 mps 689 mmHg 86%
06:00 +8°C° 0 mm 0 mps 689 mmHg 85%
07:00 +8°C° 0 mm 0 mps 689 mmHg 85%
08:00 +8°C° 0 mm 0 mps 689 mmHg 84%
09:00 +11°C° 0 mm 1 mps 690 mmHg 77%
10:00 +13°C° 0 mm 1 mps 690 mmHg 71%
11:00 +15°C° 0 mm 1 mps 691 mmHg 64%
12:00 +15°C° 0 mm 1 mps 691 mmHg 61%
13:00 +16°C° 0 mm 1 mps 690 mmHg 58%
14:00 +17°C° 0 mm 2 mps 690 mmHg 55%
15:00 +16°C° 0 mm 2 mps 690 mmHg 60%
16:00 +15°C° 0 mm 1 mps 690 mmHg 64%
17:00 +14°C° 0 mm 1 mps 690 mmHg 68%
18:00 +13°C° 0 mm 1 mps 690 mmHg 74%
19:00 +12°C° 0 mm 1 mps 690 mmHg 79%
20:00 +11°C° 0 mm 1 mps 690 mmHg 85%
21:00 +10°C° 0 mm 1 mps 690 mmHg 87%
22:00 +10°C° 0 mm 1 mps 690 mmHg 88%
23:00 +10°C° 0 mm 1 mps 690 mmHg 90%

Day after tomorrow, 29 October, Thursday

Time Temperature Precipitation Wind Pressure Humidity
00:00 +10°C° 0 mm 1 mps 690 mmHg 90%
01:00 +9°C° 0 mm 1 mps 690 mmHg 91%
02:00 +9°C° 0 mm 1 mps 690 mmHg 91%
03:00 +9°C° 0 mm 1 mps 690 mmHg 91%
04:00 +9°C° 0 mm 1 mps 690 mmHg 92%
05:00 +8°C° 0 mm 1 mps 690 mmHg 92%
06:00 +8°C° 0 mm 1 mps 690 mmHg 92%
07:00 +9°C° 0 mm 1 mps 691 mmHg 91%
08:00 +9°C° 0 mm 1 mps 691 mmHg 91%
09:00 +11°C° 0 mm 1 mps 691 mmHg 83%
10:00 +12°C° 0 mm 1 mps 692 mmHg 75%
11:00 +14°C° 0 mm 1 mps 692 mmHg 68%
12:00 +15°C° 0 mm 1 mps 692 mmHg 64%
13:00 +15°C° 0 mm 1 mps 692 mmHg 59%
14:00 +16°C° 0 mm 2 mps 692 mmHg 55%
15:00 +15°C° 0 mm 2 mps 692 mmHg 60%
16:00 +14°C° 0 mm 1 mps 691 mmHg 64%
17:00 +13°C° 0 mm 1 mps 691 mmHg 68%
18:00 +12°C° 0 mm 1 mps 691 mmHg 73%
19:00 +11°C° 0 mm 1 mps 692 mmHg 78%
20:00 +10°C° 0 mm 1 mps 692 mmHg 83%
21:00 +9°C° 0 mm 1 mps 692 mmHg 84%
22:00 +9°C° 0 mm 1 mps 692 mmHg 85%
23:00 +9°C° 0 mm 1 mps 692 mmHg 86%

30 October, Friday

Time Temperature Precipitation Wind Pressure Humidity
00:00 +9°C° 0 mm 1 mps 692 mmHg 86%
01:00 +8°C° 0 mm 1 mps 692 mmHg 87%
02:00 +8°C° 0 mm 1 mps 692 mmHg 88%
03:00 +8°C° 0 mm 1 mps 692 mmHg 88%
04:00 +8°C° 0 mm 1 mps 693 mmHg 88%
05:00 +9°C° 0 mm 1 mps 693 mmHg 89%
06:00 +9°C° 0 mm 1 mps 693 mmHg 89%
07:00 +9°C° 0 mm 1 mps 694 mmHg 88%
08:00 +9°C° 0 mm 1 mps 694 mmHg 88%
09:00 +9°C° 0 mm 2 mps 695 mmHg 82%
10:00 +10°C° 0 mm 3 mps 695 mmHg 76%
11:00 +10°C° 0 mm 4 mps 695 mmHg 70%
12:00 +11°C° 0 mm 4 mps 695 mmHg 65%
13:00 +11°C° 0 mm 4 mps 695 mmHg 60%
14:00 +12°C° 0 mm 5 mps 694 mmHg 54%
15:00 +11°C° 0 mm 4 mps 694 mmHg 58%
16:00 +10°C° 0 mm 4 mps 694 mmHg 61%
17:00 +9°C° 0 mm 3 mps 694 mmHg 65%
18:00 +8°C° 0 mm 3 mps 694 mmHg 69%
19:00 +7°C° 0 mm 2 mps 695 mmHg 72%
20:00 +7°C° 0 mm 2 mps 695 mmHg 76%
21:00 +6°C° 0 mm 2 mps 695 mmHg 79%
22:00 +6°C° 0 mm 1 mps 695 mmHg 81%
23:00 +6°C° 0 mm 1 mps 695 mmHg 83%

31 October, Saturday

Time Temperature Precipitation Wind Pressure Humidity
00:00 +5°C° 0 mm 1 mps 695 mmHg 85%
01:00 +5°C° 0 mm 1 mps 695 mmHg 86%
02:00 +5°C° 0 mm 1 mps 694 mmHg 87%
03:00 +5°C° 0 mm 1 mps 694 mmHg 87%
04:00 +4°C° 0 mm 1 mps 694 mmHg 88%
05:00 +4°C° 0 mm 1 mps 694 mmHg 89%
06:00 +5°C° 0 mm 1 mps 694 mmHg 87%
07:00 +5°C° 0 mm 1 mps 694 mmHg 85%
08:00 +6°C° 0 mm 1 mps 694 mmHg 84%
09:00 +8°C° 0 mm 1 mps 694 mmHg 77%
10:00 +9°C° 0 mm 1 mps 694 mmHg 70%
11:00 +10°C° 0 mm 2 mps 694 mmHg 63%
12:00 +10°C° 0 mm 2 mps 694 mmHg 64%
13:00 +12°C° 0 mm 2 mps 693 mmHg 65%
14:00 +11°C° 0 mm 3 mps 693 mmHg 66%
15:00 +10°C° 0 mm 2 mps 692 mmHg 70%
16:00 +10°C° 0 mm 2 mps 692 mmHg 73%
17:00 +9°C° 0 mm 2 mps 692 mmHg 76%
18:00 +10°C° 0.1 mm 1 mps 692 mmHg 79%
19:00 +9°C° 0.1 mm 1 mps 692 mmHg 82%
20:00 +9°C° 0.1 mm 1 mps 692 mmHg 84%
21:00 +9°C° 0.3 mm 1 mps 692 mmHg 86%
22:00 +9°C° 0.3 mm 1 mps 692 mmHg 88%
23:00 +8°C° 0.3 mm 1 mps 692 mmHg 89%

1 November, Sunday

Time Temperature Precipitation Wind Pressure Humidity
00:00 +7°C° 0.3 mm 2 mps 692 mmHg 89%
01:00 +6°C° 0.3 mm 2 mps 692 mmHg 88%
02:00 +5°C° 0.3 mm 2 mps 693 mmHg 88%
03:00 +5°C° 0.2 mm 2 mps 693 mmHg 88%
04:00 +4°C° 0.2 mm 2 mps 693 mmHg 88%
05:00 +4°C° 0.2 mm 2 mps 693 mmHg 88%
06:00 +4°C° 0 mm 2 mps 694 mmHg 88%
07:00 +4°C° 0 mm 2 mps 694 mmHg 89%
08:00 +4°C° 0 mm 2 mps 695 mmHg 89%
09:00 +5°C° 0 mm 2 mps 695 mmHg 79%
10:00 +6°C° 0 mm 2 mps 695 mmHg 70%
11:00 +7°C° 0 mm 3 mps 696 mmHg 61%
12:00 +8°C° 0 mm 3 mps 695 mmHg 58%
13:00 +8°C° 0 mm 3 mps 695 mmHg 55%
14:00 +9°C° 0 mm 3 mps 695 mmHg 52%
15:00 +8°C° 0 mm 3 mps 695 mmHg 57%
16:00 +7°C° 0 mm 3 mps 695 mmHg 63%
17:00 +6°C° 0 mm 2 mps 695 mmHg 68%
18:00 +5°C° 0 mm 2 mps 695 mmHg 73%
19:00 +4°C° 0 mm 2 mps 695 mmHg 78%
20:00 +4°C° 0 mm 1 mps 695 mmHg 82%
21:00 +4°C° 0 mm 1 mps 695 mmHg 83%
22:00 +4°C° 0 mm 1 mps 695 mmHg 84%
23:00 +3°C° 0 mm 1 mps 695 mmHg 84%
Show more